User: anonymous   Login
Location: Unspecified
(0.0000°N, 0.0000°E)
Time: 00:05:44
(UTC+00:00)
Language:

SENTINEL 2A - Orbit

View from above orbital plane
View from above orbital plane
View from above satellite
View from above satellite

Ground track
Ground track

The orbit data is extracted from the following two-line orbital elements,

1 40697U 15028A   18294.71796603  .00000003  00000-0  17647-4 0  9997
2 40697  98.5699   7.6029 0001160  85.5039 274.6276 14.30818106173980
Epoch (UTC): 21 October 2018 17:13:52
Eccentricity: 0.0001160
inclination: 98.5699°
perigee height: 788 km
apogee height: 790 km
right ascension of ascending node: 7.6029°
argument of perigee: 85.5039°
revolutions per day: 14.30818106
mean anomaly at epoch: 274.6276°
orbit number at epoch: 17398

The dashed part of the orbit path shows where the satellite is in the earth's shadow,  

DLR